,,Stat6,,Stat2,,Stat8,,Stat9,,Stat10,,Wind1,,Wind1,
time,status,PA1M_AVG,status,PR1M_SUM,status,RH1M_AVG,status,SR1M_AVG,status,TA1M_AVG,status,W1dAve1m,status,W1sAve1m,
2005-10-27, 00:00:00,VALID,918.328,VALID,0,VALID,100,VALID,-0.0849042,VALID,19.816,VALID,105,VALID,0,
2005-10-27, 00:01:00,VALID,918.329,VALID,0,VALID,100,VALID,-0.0679233,VALID,19.7932,VALID,105,VALID,0,
2005-10-27, 00:02:00,VALID,918.308,VALID,0,VALID,100,VALID,-0.101885,VALID,19.7842,VALID,105,VALID,0,
2005-10-27, 00:03:00,VALID,918.303,VALID,0,VALID,100,VALID,-0.101885,VALID,19.7681,VALID,105,VALID,0,
2005-10-27, 00:04:00,VALID,918.284,VALID,0,VALID,100,VALID,-0.0679233,VALID,19.7641,VALID,105,VALID,0,
2005-10-27, 00:05:00,VALID,918.273,VALID,0,VALID,100,VALID,-0.0679233,VALID,19.7407,VALID,105,VALID,0,
2005-10-27, 00:06:00,VALID,918.276,VALID,0,VALID,100,VALID,-0.0679233,VALID,19.7546,VALID,105,VALID,0.164063,
2005-10-27, 00:07:00,VALID,918.26,VALID,0,VALID,100,VALID,-0.0509425,VALID,19.7216,VALID,65,VALID,0.595656,
2005-10-27, 00:08:00,VALID,918.26,VALID,0,VALID,100,VALID,-0.0509425,VALID,19.7124,VALID,48,VALID,0.277644,
2005-10-27, 00:09:00,VALID,918.251,VALID,0,VALID,100,VALID,-0.0339617,VALID,19.6861,VALID,48,VALID,0.136265,
2005-10-27, 00:10:00,VALID,918.264,VALID,0,VALID,100,VALID,-0.0339617,VALID,19.6798,VALID,48,VALID,0.268714,
2005-10-27, 00:11:00,VALID,918.278,VALID,0,VALID,100,VALID,0.0169808,VALID,19.647,VALID,46,VALID,0.29633,
2005-10-27, 00:12:00,VALID,918.271,VALID,0,VALID,100,VALID,-0.0169808,VALID,19.6443,VALID,13,VALID,0.505632,
2005-10-27, 00:13:00,VALID,918.282,VALID,0,VALID,100,VALID,-0.0339617,VALID,19.6247,VALID,9,VALID,0.446528,
2005-10-27, 00:14:00,VALID,918.28,VALID,0,VALID,100,VALID,-0.0509425,VALID,19.6247,VALID,9,VALID,0.357422,
2005-10-27, 00:15:00,VALID,918.288,VALID,0,VALID,100,VALID,-0.0169808,VALID,19.6344,VALID,9,VALID,0.138529,
2005-10-27, 00:16:00,VALID,918.287,VALID,0,VALID,100,VALID,-0.0339617,VALID,19.654,VALID,9,VALID,0,
2005-10-27, 00:17:00,VALID,918.287,VALID,0,VALID,100,VALID,-0.0339617,VALID,19.6535,VALID,9,VALID,0,
2005-10-27, 00:18:00,VALID,918.281,VALID,0,VALID,100,VALID,-0.0339617,VALID,19.6537,VALID,9,VALID,0,
2005-10-27, 00:19:00,VALID,918.277,VALID,0,VALID,100,VALID,-0.0169808,VALID,19.6532,VALID,9,VALID,0.0642578,
2005-10-27, 00:20:00,VALID,918.261,VALID,0,VALID,100,VALID,-0.0509425,VALID,19.6473,VALID,9,VALID,0.30506,
2005-10-27, 00:21:00,VALID,918.256,VALID,0,VALID,100,VALID,-0.0169808,VALID,19.6344,VALID,39,VALID,0.584821,
2005-10-27, 00:22:00,VALID,918.25,VALID,0,VALID,100,VALID,-0.0509425,VALID,19.6448,VALID,74,VALID,0.696265,
2005-10-27, 00:23:00,VALID,918.229,VALID,0,VALID,100,VALID,-0.0679233,VALID,19.6314,VALID,78,VALID,0.789773,
2005-10-27, 00:24:00,VALID,918.21,VALID,0,VALID,100,VALID,-0.0849042,VALID,19.6383,VALID,85,VALID,1.01726,
2005-10-27, 00:25:00,VALID,918.199,VALID,0,VALID,100,VALID,-0.0509425,VALID,19.6508,VALID,86,VALID,0.898074,
2005-10-27, 00:26:00,VALID,918.183,VALID,0,VALID,100,VALID,-0.0169808,VALID,19.6607,VALID,93,VALID,0.938664,
2005-10-27, 00:27:00,VALID,918.191,VALID,0,VALID,100,VALID,-0.0169808,VALID,19.6672,VALID,98,VALID,1.15163,
2005-10-27, 00:28:00,VALID,918.164,VALID,0,VALID,100,VALID,-0.0509425,VALID,19.6793,VALID,106,VALID,1.01154,
2005-10-27, 00:29:00,VALID,918.135,VALID,0,VALID,100,VALID,-0.0339617,VALID,19.6992,VALID,106,VALID,1.10901,
2005-10-27, 00:30:00,VALID,918.116,VALID,0,VALID,100,VALID,-0.0679233,VALID,19.6928,VALID,102,VALID,1.01086,
2005-10-27, 00:31:00,VALID,918.108,VALID,0,VALID,100,VALID,-0.0169808,VALID,19.692,VALID,99,VALID,0.674964,
2005-10-27, 00:32:00,VALID,918.105,VALID,0,VALID,100,VALID,-0.0339617,VALID,19.6893,VALID,130,VALID,0.37314,
2005-10-27, 00:33:00,VALID,918.099,VALID,0,VALID,100,VALID,-0.0169808,VALID,19.6893,VALID,107,VALID,0.677837,
2005-10-27, 00:34:00,VALID,918.093,VALID,0,VALID,100,VALID,-0.0509425,VALID,19.6858,VALID,102,VALID,1.04502,
2005-10-27, 00:35:00,VALID,918.09,VALID,0,VALID,100,VALID,0,VALID,19.7059,VALID,86,VALID,0.827009,
2005-10-27, 00:36:00,VALID,918.094,VALID,0,VALID,100,VALID,-0.0339617,VALID,19.7082,VALID,83,VALID,0.606831,
2005-10-27, 00:37:00,VALID,918.06,VALID,0,VALID,100,VALID,0,VALID,19.7116,VALID,87,VALID,0.762536,
2005-10-27, 00:38:00,VALID,918.063,VALID,0,VALID,100,VALID,-0.0169808,VALID,19.7119,VALID,80,VALID,0.949929,
2005-10-27, 00:39:00,VALID,918.048,VALID,0,VALID,100,VALID,-0.0339617,VALID,19.7226,VALID,70,VALID,0.981898,
2005-10-27, 00:40:00,VALID,918.039,VALID,0,VALID,100,VALID,-0.0679233,VALID,19.7054,VALID,81,VALID,0.918146,
2005-10-27, 00:41:00,VALID,918.036,VALID,0,VALID,100,VALID,-0.0849042,VALID,19.7094,VALID,78,VALID,0.72017,
2005-10-27, 00:42:00,VALID,918.029,VALID,0,VALID,100,VALID,-0.0339617,VALID,19.6923,VALID,86,VALID,0.742569,
2005-10-27, 00:43:00,VALID,918.017,VALID,0,VALID,100,VALID,-0.0169808,VALID,19.6965,VALID,90,VALID,0.616071,
2005-10-27, 00:44:00,VALID,918.01,VALID,0,VALID,100,VALID,-0.0339617,VALID,19.6863,VALID,102,VALID,0.8391,
2005-10-27, 00:45:00,VALID,917.997,VALID,0,VALID,100,VALID,-0.0679233,VALID,19.6898,VALID,99,VALID,0.750195,
2005-10-27, 00:46:00,VALID,917.968,VALID,0,VALID,100,VALID,-0.0509425,VALID,19.6734,VALID,96,VALID,0.269627,
2005-10-27, 00:47:00,VALID,917.96,VALID,0,VALID,100,VALID,-0.0169808,VALID,19.6602,VALID,100,VALID,0,
2005-10-27, 00:48:00,VALID,917.964,VALID,0,VALID,100,VALID,-0.0679233,VALID,19.6575,VALID,100,VALID,0,
2005-10-27, 00:49:00,VALID,917.973,VALID,0,VALID,100,VALID,-0.0509425,VALID,19.6674,VALID,100,VALID,0.00595238,
2005-10-27, 00:50:00,VALID,917.963,VALID,0,VALID,100,VALID,-0.0339617,VALID,19.6408,VALID,103,VALID,0.0826172,
2005-10-27, 00:51:00,VALID,917.965,VALID,0,VALID,100,VALID,-0.0339617,VALID,19.6411,VALID,168,VALID,0.51456,
2005-10-27, 00:52:00,VALID,917.957,VALID,0,VALID,100,VALID,-0.0679233,VALID,19.6381,VALID,162,VALID,0.772711,
2005-10-27, 00:53:00,VALID,917.956,VALID,0,VALID,100,VALID,-0.0169808,VALID,19.6353,VALID,164,VALID,0.713356,
2005-10-27, 00:54:00,VALID,917.967,VALID,0,VALID,100,VALID,-0.0339617,VALID,19.6192,VALID,166,VALID,0.491443,
2005-10-27, 00:55:00,VALID,917.945,VALID,0,VALID,100,VALID,-0.0679233,VALID,19.5926,VALID,152,VALID,0.707698,
2005-10-27, 00:56:00,VALID,917.95,VALID,0,VALID,100,VALID,-0.0509425,VALID,19.5765,VALID,155,VALID,0.549352,
2005-10-27, 00:57:00,VALID,917.941,VALID,0,VALID,100,VALID,-0.0509425,VALID,19.5601,VALID,159,VALID,0.151215,
2005-10-27, 00:58:00,VALID,917.929,VALID,0,VALID,100,VALID,-0.0339617,VALID,19.564,VALID,141,VALID,0.567042,
2005-10-27, 00:59:00,VALID,917.913,VALID,0,VALID,100,VALID,-0.0509425,VALID,19.5345,VALID,143,VALID,0.776105,
2005-10-27, 01:00:00,VALID,917.886,VALID,0,VALID,100,VALID,-0.0679233,VALID,19.5377,VALID,146,VALID,1.19289,
2005-10-27, 01:01:00,VALID,917.873,VALID,0,VALID,100,VALID,-0.0339617,VALID,19.5474,VALID,153,VALID,0.678925,
2005-10-27, 01:02:00,VALID,917.864,VALID,0,VALID,100,VALID,-0.0849042,VALID,19.5576,VALID,122,VALID,0.59593,
2005-10-27, 01:03:00,VALID,917.864,VALID,0,VALID,100,VALID,-0.0339617,VALID,19.5638,VALID,126,VALID,0.424237,
2005-10-27, 01:04:00,VALID,917.853,VALID,0,VALID,100,VALID,0,VALID,19.5531,VALID,167,VALID,0.426235,
2005-10-27, 01:05:00,VALID,917.876,VALID,0,VALID,100,VALID,0.0169808,VALID,19.5563,VALID,167,VALID,0.0528706,
2005-10-27, 01:06:00,VALID,917.888,VALID,0,VALID,100,VALID,0,VALID,19.5598,VALID,164,VALID,0.084032,
2005-10-27, 01:07:00,VALID,917.9,VALID,0,VALID,100,VALID,0,VALID,19.5625,VALID,138,VALID,1.01848,
2005-10-27, 01:08:00,VALID,917.898,VALID,0,VALID,100,VALID,0,VALID,19.5822,VALID,142,VALID,1.01469,
2005-10-27, 01:09:00,VALID,917.901,VALID,0,VALID,100,VALID,0,VALID,19.6217,VALID,154,VALID,0.963281,
2005-10-27, 01:10:00,VALID,917.914,VALID,0,VALID,100,VALID,0,VALID,19.6403,VALID,152,VALID,0.507813,
2005-10-27, 01:11:00,VALID,917.909,VALID,0,VALID,100,VALID,0,VALID,19.6629,VALID,145,VALID,0.893403,
2005-10-27, 01:12:00,VALID,917.887,VALID,0,VALID,100,VALID,0,VALID,19.6629,VALID,143,VALID,0.874479,
2005-10-27, 01:13:00,VALID,917.886,VALID,0,VALID,100,VALID,0.0169808,VALID,19.6858,VALID,143,VALID,1.13009,
2005-10-27, 01:14:00,VALID,917.855,VALID,0,VALID,100,VALID,0,VALID,19.6955,VALID,139,VALID,1.22101,
2005-10-27, 01:15:00,VALID,917.845,VALID,0,VALID,100,VALID,0,VALID,19.6985,VALID,150,VALID,1.05957,
2005-10-27, 01:16:00,VALID,917.843,VALID,0,VALID,100,VALID,0.0169808,VALID,19.6883,VALID,159,VALID,1.53307,
2005-10-27, 01:17:00,VALID,917.848,VALID,0,VALID,100,VALID,0.0169808,VALID,19.7179,VALID,153,VALID,1.31399,
2005-10-27, 01:18:00,VALID,917.844,VALID,0,VALID,100,VALID,0.0169808,VALID,19.7375,VALID,163,VALID,0.627208,
2005-10-27, 01:19:00,VALID,917.839,VALID,0,VALID,100,VALID,0,VALID,19.7467,VALID,161,VALID,0.786519,
2005-10-27, 01:20:00,VALID,917.86,VALID,0,VALID,100,VALID,0.0339617,VALID,19.7504,VALID,143,VALID,1.00332,
2005-10-27, 01:21:00,VALID,917.847,VALID,0,VALID,100,VALID,0.0169808,VALID,19.7502,VALID,101,VALID,0.203303,
2005-10-27, 01:22:00,VALID,917.85,VALID,0,VALID,100,VALID,0.0169808,VALID,19.7335,VALID,152,VALID,0.508322,
2005-10-27, 01:23:00,VALID,917.842,VALID,0,VALID,100,VALID,0.0169808,VALID,19.7407,VALID,165,VALID,0.642149,
2005-10-27, 01:24:00,VALID,917.817,VALID,0,VALID,100,VALID,0.0169808,VALID,19.7241,VALID,159,VALID,0.718205,
2005-10-27, 01:25:00,VALID,917.8,VALID,0,VALID,100,VALID,0,VALID,19.7276,VALID,163,VALID,0.748698,
2005-10-27, 01:26:00,VALID,917.79,VALID,0,VALID,100,VALID,0,VALID,19.7216,VALID,156,VALID,0.74638,
2005-10-27, 01:27:00,VALID,917.778,VALID,0,VALID,100,VALID,0,VALID,19.7211,VALID,154,VALID,0.675686,
2005-10-27, 01:28:00,VALID,917.767,VALID,0,VALID,100,VALID,-0.0169808,VALID,19.7116,VALID,134,VALID,0.782774,
2005-10-27, 01:29:00,VALID,917.758,VALID,0,VALID,100,VALID,0.0169808,VALID,19.7079,VALID,131,VALID,0.713542,
2005-10-27, 01:30:00,VALID,917.741,VALID,0,VALID,100,VALID,0.0339617,VALID,19.7012,VALID,139,VALID,0.897079,
2005-10-27, 01:31:00,VALID,917.732,VALID,0,VALID,100,VALID,0.0169808,VALID,19.7149,VALID,143,VALID,1.06445,
2005-10-27, 01:32:00,VALID,917.72,VALID,0,VALID,100,VALID,0.0169808,VALID,19.7141,VALID,148,VALID,0.96875,
2005-10-27, 01:33:00,VALID,917.692,VALID,0,VALID,100,VALID,0,VALID,19.7181,VALID,146,VALID,0.667578,
2005-10-27, 01:34:00,VALID,917.671,VALID,0,VALID,100,VALID,0,VALID,19.7308,VALID,140,VALID,1.38072,
2005-10-27, 01:35:00,VALID,917.672,VALID,0,VALID,100,VALID,0.0169808,VALID,19.7276,VALID,126,VALID,1.24983,
2005-10-27, 01:36:00,VALID,917.656,VALID,0,VALID,100,VALID,0,VALID,19.7372,VALID,142,VALID,1.01111,
2005-10-27, 01:37:00,VALID,917.651,VALID,0,VALID,100,VALID,0,VALID,19.7308,VALID,150,VALID,1.22428,
2005-10-27, 01:38:00,VALID,917.628,VALID,0,VALID,100,VALID,0.0339617,VALID,19.7208,VALID,148,VALID,1.27511,
2005-10-27, 01:39:00,VALID,917.61,VALID,0,VALID,100,VALID,0,VALID,19.7221,VALID,148,VALID,1.29464,
2005-10-27, 01:40:00,VALID,917.593,VALID,0,VALID,100,VALID,0,VALID,19.7087,VALID,143,VALID,1.10497,
2005-10-27, 01:41:00,VALID,917.586,VALID,0,VALID,100,VALID,0,VALID,19.6823,VALID,142,VALID,0.899287,
2005-10-27, 01:42:01,VALID,917.582,VALID,0,VALID,100,VALID,0.0169808,VALID,19.6592,VALID,121,VALID,0.836965,
2005-10-27, 01:43:00,VALID,917.586,VALID,0,VALID,100,VALID,0,VALID,19.6632,VALID,127,VALID,1.01153,
2005-10-27, 01:44:01,VALID,917.565,VALID,0,VALID,100,VALID,0,VALID,19.6371,VALID,124,VALID,0.79742,
2005-10-27, 01:45:00,VALID,917.56,VALID,0,VALID,100,VALID,0,VALID,19.6309,VALID,119,VALID,0.705078,
2005-10-27, 01:46:00,VALID,917.542,VALID,0,VALID,100,VALID,0.0169808,VALID,19.6177,VALID,117,VALID,0.847743,
2005-10-27, 01:47:00,VALID,917.519,VALID,0,VALID,100,VALID,0.0169808,VALID,19.6145,VALID,119,VALID,1.09909,
2005-10-27, 01:48:00,VALID,917.496,VALID,0,VALID,100,VALID,0.0169808,VALID,19.6048,VALID,123,VALID,1.12695,
2005-10-27, 01:49:00,VALID,917.482,VALID,0,VALID,100,VALID,0,VALID,19.5919,VALID,107,VALID,0.995276,
2005-10-27, 01:50:00,VALID,917.463,VALID,0,VALID,100,VALID,0.0169808,VALID,19.5857,VALID,126,VALID,0.829799,
2005-10-27, 01:51:01,VALID,917.455,VALID,0,VALID,100,VALID,0.0169808,VALID,19.5886,VALID,113,VALID,0.913132,
2005-10-27, 01:52:01,VALID,917.431,VALID,0,VALID,100,VALID,-0.0169808,VALID,19.5884,VALID,123,VALID,0.580487,
2005-10-27, 01:53:00,VALID,917.424,VALID,0,VALID,100,VALID,0,VALID,19.5822,VALID,122,VALID,0.795945,
2005-10-27, 01:54:00,VALID,917.414,VALID,0,VALID,100,VALID,0.0169808,VALID,19.5884,VALID,117,VALID,1.05945,
2005-10-27, 01:55:00,VALID,917.395,VALID,0,VALID,100,VALID,0,VALID,19.5949,VALID,135,VALID,0.959077,
2005-10-27, 01:56:00,VALID,917.391,VALID,0,VALID,100,VALID,0,VALID,19.5884,VALID,131,VALID,1.28162,
2005-10-27, 01:57:00,VALID,917.374,VALID,0,VALID,100,VALID,0.0169808,VALID,19.6175,VALID,135,VALID,0.956395,
2005-10-27, 01:58:00,VALID,917.359,VALID,0,VALID,99.9929,VALID,0.0169808,VALID,19.6274,VALID,117,VALID,0.540737,
2005-10-27, 01:59:00,VALID,917.36,VALID,0,VALID,99.7141,VALID,0,VALID,19.6309,VALID,111,VALID,1.18594,
2005-10-27, 02:00:01,VALID,917.351,VALID,0,VALID,99.5476,VALID,0,VALID,19.6373,VALID,87,VALID,0.6875,
2005-10-27, 02:01:00,VALID,917.349,VALID,0,VALID,99.4318,VALID,0,VALID,19.6368,VALID,114,VALID,0.564135,
2005-10-27, 02:02:00,VALID,917.331,VALID,0,VALID,99.3314,VALID,0.0169808,VALID,19.6505,VALID,80,VALID,0.521875,
2005-10-27, 02:03:01,VALID,917.318,VALID,0,VALID,99.2856,VALID,0.0509425,VALID,19.6373,VALID,94,VALID,0.540365,
2005-10-27, 02:04:00,VALID,917.31,VALID,0,VALID,99.2678,VALID,0,VALID,19.6272,VALID,117,VALID,0.854936,
2005-10-27, 02:05:01,VALID,917.293,VALID,0,VALID,99.2615,VALID,0.0169808,VALID,19.6209,VALID,101,VALID,0.697731,
2005-10-27, 02:06:00,VALID,917.288,VALID,0,VALID,99.3314,VALID,0.0169808,VALID,19.6175,VALID,125,VALID,1.0467,
2005-10-27, 02:07:01,VALID,917.29,VALID,0,VALID,99.3403,VALID,0.0339617,VALID,19.6209,VALID,131,VALID,0.568109,
2005-10-27, 02:08:01,VALID,917.278,VALID,0,VALID,99.3149,VALID,0.0509425,VALID,19.6202,VALID,130,VALID,1.04345,
2005-10-27, 02:09:00,VALID,917.281,VALID,0,VALID,99.2309,VALID,0,VALID,19.6239,VALID,151,VALID,1.0394,
2005-10-27, 02:10:01,VALID,917.278,VALID,0,VALID,99.0783,VALID,0.0509425,VALID,19.6401,VALID,130,VALID,1.12805,
2005-10-27, 02:11:00,VALID,917.274,VALID,0,VALID,98.8545,VALID,0.0169808,VALID,19.6796,VALID,128,VALID,0.971236,
2005-10-27, 02:12:00,VALID,917.284,VALID,0,VALID,98.6765,VALID,0,VALID,19.6851,VALID,117,VALID,0.946007,
2005-10-27, 02:13:00,VALID,917.283,VALID,0,VALID,98.5188,VALID,0,VALID,19.6943,VALID,114,VALID,0.766768,
2005-10-27, 02:14:00,VALID,917.269,VALID,0,VALID,98.4196,VALID,0,VALID,19.7149,VALID,123,VALID,0.567769,
2005-10-27, 02:15:00,VALID,917.259,VALID,0,VALID,98.3484,VALID,0.0339617,VALID,19.6982,VALID,115,VALID,0.690625,
2005-10-27, 02:16:00,VALID,917.249,VALID,0,VALID,98.3205,VALID,0.0509425,VALID,19.7015,VALID,133,VALID,0.565662,
2005-10-27, 02:17:01,VALID,917.228,VALID,0,VALID,98.3052,VALID,0,VALID,19.702,VALID,129,VALID,0.789063,
2005-10-27, 02:18:00,VALID,917.207,VALID,0,VALID,98.3039,VALID,0,VALID,19.6885,VALID,126,VALID,0.924479,
2005-10-27, 02:19:00,VALID,917.21,VALID,0,VALID,98.2887,VALID,0,VALID,19.6987,VALID,125,VALID,0.849382,
2005-10-27, 02:20:01,VALID,917.184,VALID,0,VALID,98.1793,VALID,0.0169808,VALID,19.6955,VALID,130,VALID,0.894431,
2005-10-27, 02:21:00,VALID,917.17,VALID,0,VALID,98.1424,VALID,0.0339617,VALID,19.698,VALID,129,VALID,0.486555,
2005-10-27, 02:22:01,VALID,917.154,VALID,0,VALID,98.1348,VALID,0.0339617,VALID,19.6985,VALID,127,VALID,0.506392,
2005-10-27, 02:23:00,VALID,917.141,VALID,0,VALID,98.1513,VALID,0.0509425,VALID,19.6987,VALID,120,VALID,0.296148,
2005-10-27, 02:24:00,VALID,917.126,VALID,0,VALID,98.1501,VALID,0,VALID,19.6791,VALID,125,VALID,0.553622,
2005-10-27, 02:25:00,VALID,917.117,VALID,0,VALID,98.2048,VALID,0,VALID,19.6627,VALID,138,VALID,0.764717,
2005-10-27, 02:26:01,VALID,917.102,VALID,0,VALID,98.2849,VALID,0,VALID,19.6662,VALID,139,VALID,0.491319,
2005-10-27, 02:27:01,VALID,917.093,VALID,0,VALID,98.3853,VALID,0.0169808,VALID,19.6498,VALID,138,VALID,0.345846,
2005-10-27, 02:28:00,VALID,917.097,VALID,0,VALID,98.4247,VALID,0,VALID,19.6272,VALID,132,VALID,0.573803,
2005-10-27, 02:29:01,VALID,917.08,VALID,0,VALID,98.4527,VALID,0,VALID,19.6177,VALID,109,VALID,0.419457,
2005-10-27, 02:30:00,VALID,917.076,VALID,0,VALID,98.4146,VALID,0.0169808,VALID,19.6185,VALID,118,VALID,0.862847,
2005-10-27, 02:31:00,VALID,917.067,VALID,0,VALID,98.4184,VALID,0.0169808,VALID,19.6085,VALID,131,VALID,0.830171,
2005-10-27, 02:32:01,VALID,917.059,VALID,0,VALID,98.4438,VALID,0,VALID,19.6053,VALID,117,VALID,0.613368,
2005-10-27, 02:33:00,VALID,917.063,VALID,0,VALID,98.482,VALID,0.0169808,VALID,19.6053,VALID,122,VALID,0.427401,
2005-10-27, 02:34:00,VALID,917.063,VALID,0,VALID,98.5137,VALID,0.0169808,VALID,19.6088,VALID,103,VALID,0.730564,
2005-10-27, 02:35:00,VALID,917.054,VALID,0,VALID,98.5227,VALID,0,VALID,19.5757,VALID,111,VALID,0.666319,
2005-10-27, 02:36:01,VALID,917.061,VALID,0,VALID,98.5888,VALID,0.0339617,VALID,19.5566,VALID,93,VALID,0.563045,
2005-10-27, 02:37:00,VALID,917.058,VALID,0,VALID,98.6078,VALID,0.0509425,VALID,19.5367,VALID,109,VALID,0.602095,
2005-10-27, 02:38:00,VALID,917.057,VALID,0,VALID,98.6358,VALID,0,VALID,19.5208,VALID,110,VALID,0.357955,
2005-10-27, 02:39:01,VALID,917.058,VALID,0,VALID,98.6676,VALID,0,VALID,19.5312,VALID,112,VALID,0.0969122,
2005-10-27, 02:40:00,VALID,917.052,VALID,0,VALID,98.7248,VALID,0.0169808,VALID,19.5109,VALID,110,VALID,0.352307,
2005-10-27, 02:41:00,VALID,917.047,VALID,0,VALID,98.7287,VALID,0,VALID,19.4979,VALID,135,VALID,0.454268,
2005-10-27, 02:42:01,VALID,917.036,VALID,0,VALID,98.7096,VALID,0.0339617,VALID,19.5079,VALID,116,VALID,0.352431,
2005-10-27, 02:43:00,VALID,917.023,VALID,0,VALID,98.7337,VALID,0.0339617,VALID,19.5173,VALID,90,VALID,0.028054,
2005-10-27, 02:44:01,VALID,917.009,VALID,0,VALID,98.7299,VALID,0.0339617,VALID,19.5176,VALID,106,VALID,0.284702,
2005-10-27, 02:45:00,VALID,916.988,VALID,0,VALID,98.7172,VALID,0.0169808,VALID,19.5084,VALID,124,VALID,0.236235,
2005-10-27, 02:46:00,VALID,916.983,VALID,0,VALID,98.6943,VALID,0,VALID,19.5044,VALID,132,VALID,0.310023,
2005-10-27, 02:47:00,VALID,916.963,VALID,0,VALID,98.6473,VALID,0,VALID,19.5086,VALID,145,VALID,0.312863,
2005-10-27, 02:48:00,VALID,916.958,VALID,0,VALID,98.6282,VALID,0.0339617,VALID,19.495,VALID,137,VALID,0.863281,
2005-10-27, 02:49:01,VALID,916.951,VALID,0,VALID,98.4998,VALID,0.0169808,VALID,19.4952,VALID,151,VALID,0.793786,
2005-10-27, 02:50:00,VALID,916.934,VALID,0,VALID,98.4082,VALID,0,VALID,19.5014,VALID,134,VALID,0.877663,
2005-10-27, 02:51:01,VALID,916.935,VALID,0,VALID,98.295,VALID,0.0169808,VALID,19.5143,VALID,130,VALID,0.537538,
2005-10-27, 02:52:00,VALID,916.925,VALID,0,VALID,98.2327,VALID,0,VALID,19.5243,VALID,140,VALID,0.68936,
2005-10-27, 02:53:00,VALID,916.921,VALID,0,VALID,98.1488,VALID,0,VALID,19.5273,VALID,137,VALID,1.07993,
2005-10-27, 02:54:00,VALID,916.922,VALID,0,VALID,98.1005,VALID,0.0169808,VALID,19.5275,VALID,124,VALID,0.859012,
2005-10-27, 02:55:00,VALID,916.91,VALID,0,VALID,97.8958,VALID,0.0169808,VALID,19.5439,VALID,137,VALID,0.825707,
2005-10-27, 02:56:00,VALID,916.897,VALID,0,VALID,97.7381,VALID,0.0169808,VALID,19.5434,VALID,136,VALID,0.712271,
2005-10-27, 02:57:00,VALID,916.9,VALID,0,VALID,97.705,VALID,0.0339617,VALID,19.563,VALID,141,VALID,0.480755,
2005-10-27, 02:58:00,VALID,916.885,VALID,0,VALID,97.6338,VALID,0.0169808,VALID,19.5529,VALID,136,VALID,0.825763,
2005-10-27, 02:59:00,VALID,916.875,VALID,0,VALID,97.6134,VALID,0.0679233,VALID,19.5658,VALID,118,VALID,0.581032,
2005-10-27, 03:00:00,VALID,916.871,VALID,0,VALID,97.6096,VALID,0,VALID,19.5693,VALID,105,VALID,0.233373,
2005-10-27, 03:01:01,VALID,916.859,VALID,0,VALID,97.5791,VALID,0,VALID,19.5561,VALID,129,VALID,0.655523,
2005-10-27, 03:02:00,VALID,916.841,VALID,0,VALID,97.5562,VALID,0,VALID,19.563,VALID,119,VALID,0.543423,
2005-10-27, 03:03:00,VALID,916.836,VALID,0,VALID,97.5283,VALID,0.0169808,VALID,19.573,VALID,139,VALID,0.550249,
2005-10-27, 03:04:00,VALID,916.836,VALID,0,VALID,97.5524,VALID,0.0169808,VALID,19.57,VALID,141,VALID,0.431504,
2005-10-27, 03:05:01,VALID,916.828,VALID,0,VALID,97.6287,VALID,0.0169808,VALID,19.5501,VALID,139,VALID,0.166481,
2005-10-27, 03:06:01,VALID,916.816,VALID,0,VALID,97.7381,VALID,0.0339617,VALID,19.5533,VALID,134,VALID,0.137957,
2005-10-27, 03:07:00,VALID,916.809,VALID,0,VALID,97.8652,VALID,0,VALID,19.5441,VALID,135,VALID,0.114784,
2005-10-27, 03:08:00,VALID,916.796,VALID,0,VALID,97.9212,VALID,0,VALID,19.5143,VALID,140,VALID,0.56032,
2005-10-27, 03:09:01,VALID,916.792,VALID,0,VALID,97.9097,VALID,0.0169808,VALID,19.5151,VALID,149,VALID,0.138393,
2005-10-27, 03:10:00,VALID,916.784,VALID,0,VALID,97.9987,VALID,0,VALID,19.5017,VALID,144,VALID,0.100347,
2005-10-27, 03:11:00,VALID,916.794,VALID,0,VALID,97.9631,VALID,0.0339617,VALID,19.4853,VALID,126,VALID,0.352983,
2005-10-27, 03:12:00,VALID,916.782,VALID,0,VALID,97.9975,VALID,0.0339617,VALID,19.4818,VALID,126,VALID,0.0327035,
2005-10-27, 03:13:01,VALID,916.779,VALID,0,VALID,98.1424,VALID,0,VALID,19.4853,VALID,126,VALID,0.0107422,
2005-10-27, 03:14:00,VALID,916.787,VALID,0,VALID,98.2543,VALID,0.0679233,VALID,19.4731,VALID,126,VALID,0,
2005-10-27, 03:15:00,VALID,916.794,VALID,0,VALID,98.3993,VALID,0.0509425,VALID,19.4465,VALID,126,VALID,0,
2005-10-27, 03:16:00,VALID,916.785,VALID,0,VALID,98.4883,VALID,0.0509425,VALID,19.4207,VALID,126,VALID,0.218023,
2005-10-27, 03:17:00,VALID,916.78,VALID,0,VALID,98.5977,VALID,0.0339617,VALID,19.3754,VALID,125,VALID,0.471112,
2005-10-27, 03:18:01,VALID,916.779,VALID,0,VALID,98.7744,VALID,-0.0339617,VALID,19.3508,VALID,47,VALID,0.619549,
2005-10-27, 03:19:00,VALID,916.769,VALID,0,VALID,98.9423,VALID,-0.101885,VALID,19.3354,VALID,46,VALID,0.573583,
2005-10-27, 03:20:01,VALID,916.756,VALID,0,VALID,99.0872,VALID,-0.0849042,VALID,19.3095,VALID,48,VALID,0.335211,
2005-10-27, 03:21:00,VALID,916.76,VALID,0,VALID,99.1966,VALID,-0.0509425,VALID,19.2864,VALID,48,VALID,0.162997,
2005-10-27, 03:22:01,VALID,916.746,VALID,0,VALID,99.2932,VALID,-0.0849042,VALID,19.2705,VALID,57,VALID,0.49535,
2005-10-27, 03:23:01,VALID,916.748,VALID,0,VALID,99.4306,VALID,-0.0679233,VALID,19.2576,VALID,70,VALID,0.510231,
2005-10-27, 03:24:00,VALID,916.74,VALID,0,VALID,99.5145,VALID,-0.101885,VALID,19.2571,VALID,83,VALID,0.433594,
2005-10-27, 03:25:01,VALID,916.726,VALID,0,VALID,99.5921,VALID,-0.0679233,VALID,19.2472,VALID,91,VALID,0.571766,
2005-10-27, 03:26:00,VALID,916.707,VALID,0,VALID,99.6684,VALID,-0.0849042,VALID,19.2616,VALID,93,VALID,0.524554,
2005-10-27, 03:27:01,VALID,916.703,VALID,0,VALID,99.6785,VALID,-0.0849042,VALID,19.2646,VALID,75,VALID,0.404433,
2005-10-27, 03:28:00,VALID,916.689,VALID,0,VALID,99.6849,VALID,-0.0679233,VALID,19.2509,VALID,75,VALID,0.440278,
2005-10-27, 03:29:01,VALID,916.688,VALID,0,VALID,99.7269,VALID,-0.0849042,VALID,19.2479,VALID,75,VALID,0.49201,
2005-10-27, 03:30:01,VALID,916.68,VALID,0,VALID,99.8082,VALID,-0.0679233,VALID,19.2382,VALID,87,VALID,0.729833,
2005-10-27, 03:31:00,VALID,916.689,VALID,0,VALID,99.8756,VALID,-0.0849042,VALID,19.2348,VALID,78,VALID,0.631811,
2005-10-27, 03:32:00,VALID,916.699,VALID,0,VALID,99.9329,VALID,-0.101885,VALID,19.2422,VALID,75,VALID,0.775436,
2005-10-27, 03:33:01,VALID,916.712,VALID,0,VALID,99.9608,VALID,0,VALID,19.2241,VALID,75,VALID,0.252725,
2005-10-27, 03:34:01,VALID,916.728,VALID,0,VALID,99.9733,VALID,0.0679233,VALID,19.2273,VALID,75,VALID,0.386218,
2005-10-27, 03:35:00,VALID,916.724,VALID,0,VALID,99.999,VALID,0.0509425,VALID,19.2042,VALID,76,VALID,0.50343,
2005-10-27, 03:36:00,VALID,916.712,VALID,0,VALID,100,VALID,0,VALID,19.2209,VALID,77,VALID,0.372337,
2005-10-27, 03:37:01,VALID,916.707,VALID,0,VALID,100,VALID,0.0679233,VALID,19.204,VALID,83,VALID,0.548971,
2005-10-27, 03:38:01,VALID,916.704,VALID,0,VALID,100,VALID,0.0339617,VALID,19.2238,VALID,85,VALID,0.415015,
2005-10-27, 03:39:00,VALID,916.676,VALID,0,VALID,100,VALID,0,VALID,19.2107,VALID,85,VALID,0.366616,
2005-10-27, 03:40:00,VALID,916.666,VALID,0,VALID,100,VALID,0,VALID,19.2209,VALID,88,VALID,0.512835,